Location: La Sioule Rivi�re
(46.3664°N, 3.3197°E)
Time: 12:36:55
(UTC+00:00)

Cosmos 1745 Rocket - Pass Details

Date: 29 October 2020
Orbit: 953 x 997 km, 83.0° (Epoch: 23 November)

Event Time Altitude Azimuth Distance (km) Brightness Sun altitude
Rises 18:07:04 0° 352° (N) 3,694 7.1 -16.2°
Reaches altitude 10° 18:09:36 10° 353° (N) 2,749 6.4 -16.6°
Maximum altitude 18:15:56 81° 82° (E) 1,007 3.9 -17.7°
Drops below altitude 10° 18:22:16 10° 169° (S) 2,753 6.3 -18.8°
Sets 18:24:47 0° 171° (S) 3,701 6.9 -19.3°
